This demonstration page uses our WeatherBlox Daily Observations layout. Learn more.

Left ArrowRight Arrow

47.50024, -111.30081

Hourly Observations for May 7, 2017

Temp ( °F °C ) Dew Point ( °F °C ) Humidity (%) Winds ( mph kmh ) Pressure ( in mb ) Visibility ( mi km ) Precip ( " mm )
12:53 am 00:53 Cloudy with Light Rain 52 11.1 48 8.9 86 86 W 9 15 29.71 1006 10 16 0.00 0.03
1:53 am 01:53 Partly Cloudy 53 11.7 49 9.4 86 86 WNW 7 11 29.71 1006 10 16 0.00 0.03
2:53 am 02:53 Mostly Clear 49 9.4 47 8.3 93 93 WSW 10 17 29.69 1005 10 16 0.00 0.00
3:53 am 03:53 Clear 50 10 48 8.9 93 93 SW 7 11 29.69 1006 10 16 0.00 0.00
4:53 am 04:53 Clear 52 11.1 48 8.9 86 86 SSW 3 6 29.71 1006 10 16 0.00 0.00
5:53 am 05:53 Mostly Clear 48 8.9 45 7.2 89 89 Calm 29.78 1008 10 16 0.00 0.00
6:53 am 06:53 Cloudy 52 11.1 49 9.4 89 89 NNW 7 11 29.80 1009 10 16 0.00 0.00
7:53 am 07:53 Cloudy 51 10.6 45 7.2 80 80 N 14 22 29.82 1010 10 16 0.00 0.00
8:53 am 08:53 Cloudy 49 9.4 44 6.7 83 83 NNW 14 22 29.85 1011 10 16 0.00 0.00
9:06 am 09:06 Cloudy 48 9 45 7 87 87 N 14 22 29.88 1012 10 16 0.00 0.00
9:36 am 09:36 Cloudy 46 8 45 7 93 93 N 13 20 29.88 1012 10 16 0.00 0.00
9:53 am 09:53 Cloudy 47 8.3 43 6.1 86 86 N 16 26 29.89 1012 10 16 0.00 0.00
10:40 am 10:40 Cloudy 46 8 43 6 87 87 NNW 13 20 29.88 1012 10 16 0.00 0.00
10:53 am 10:53 Cloudy 46 7.8 43 6.1 89 89 NNW 13 20 29.90 1013 10 16 0.00 0.00
11:46 am 11:46 Cloudy with Light Rain 45 7 43 6 93 93 NNW 14 22 29.94 1014 2 3 0.00 0.00
11:53 am 11:53 Cloudy with Light Rain 44 6.7 42 5.6 93 93 NNW 13 20 29.93 1014 2 3 0.01 0.25
12:18 pm 12:18 Cloudy with Mist and Fog 45 7 41 5 87 87 NNW 15 24 29.94 1014 3 5 0.00 0.00
12:50 pm 12:50 Cloudy 45 7 39 4 81 81 NNW 14 22 29.94 1014 8 13 0.00 0.00
12:53 pm 12:53 Cloudy with Mist and Fog 44 6.7 40 4.4 85 85 NW 13 20 29.94 1014 6 10 0.00 0.03
1:16 pm 13:16 Cloudy with Light Rain 43 6 41 5 93 93 NW 13 20 29.94 1014 3 4 0.00 0.00
1:24 pm 13:24 Cloudy with Light Rain 43 6 39 4 87 87 NW 13 20 29.94 1014 2 3 0.00 0.00
1:49 pm 13:49 Cloudy with Light Rain 43 6 41 5 93 93 NW 13 20 29.94 1014 3 5 0.03 0.76
1:53 pm 13:53 Cloudy with Light Rain 43 6.1 41 5 93 93 NW 14 22 29.95 1014 4 6 0.03 0.76
2:03 pm 14:03 Cloudy with Light Rain 43 6 39 4 87 87 NW 15 24 29.94 1014 6 10 0.00 0.00
2:26 pm 14:26 Cloudy 43 6.1 40 4.4 89 89 NNW 13 20 29.94 1014 10 16 0.00 0.03
2:53 pm 14:53 Cloudy 43 6.1 41 5 93 93 NW 13 20 29.97 1015 10 16 0.00 0.03
3:00 pm 15:00 Cloudy 43 6 39 4 87 87 NW 13 20 29.94 1014 10 16 0.00 0.00
3:53 pm 15:53 Cloudy with Light Rain 43 6.1 40 4.4 89 89 NNW 13 20 29.97 1015 10 16 0.01 0.25
4:00 pm 16:00 Cloudy 43 6.1 40 4.4 89 89 NNW 9 15 29.94 1014 10 16 0.00 0.03
4:51 pm 16:51 Cloudy with Light Rain 43 6 39 4 87 87 NNW 10 17 29.97 1015 8 13 0.05 1.27
4:53 pm 16:53 Cloudy with Light Rain 43 6.1 39 3.9 86 86 NNW 10 17 29.99 1016 9 14 0.05 1.27
5:25 pm 17:25 Cloudy with Light Rain 43 6.1 39 3.9 86 86 NW 9 15 29.97 1015 10 16 0.01 0.25
5:53 pm 17:53 Cloudy with Light Rain 42 5.6 39 3.9 89 89 NNW 8 13 30.02 1017 4 6 0.01 0.25
6:29 pm 18:29 Cloudy with Light Rain 42 5.6 40 4.4 92 92 N 5 7 30.03 1017 3 4 0.01 0.25
6:39 pm 18:39 Cloudy with Light Rain 42 5.6 40 4.4 92 92 NNW 8 13 30.03 1017 3 5 0.01 0.25
6:46 pm 18:46 Cloudy with Mist and Fog 43 6 39 4 87 87 NW 9 15 30.03 1017 4 6 0.00 0.00
6:53 pm 18:53 Cloudy with Light Rain 42 5.6 40 4.4 92 92 NW 6 9 30.03 1017 6 10 0.01 0.25
7:03 pm 19:03 Cloudy with Light Rain 43 6 39 4 87 87 NW 6 9 30.03 1017 10 16 0.00 0.00
7:53 pm 19:53 Cloudy 43 6.1 39 3.9 86 86 WNW 5 7 30.04 1017 10 16 0.00 0.03
8:22 pm 20:22 Cloudy 42 5.6 40 4.4 92 92 W 5 7 30.06 1018 10 16 0.00 0.00
8:50 pm 20:50 Cloudy 43 6 39 4 87 87 WSW 5 7 30.06 1018 10 16 0.00 0.00
8:53 pm 20:53 Cloudy 42 5.6 40 4.4 92 92 SW 5 7 30.07 1018 10 16 0.00 0.00
9:05 pm 21:05 Cloudy 41 5 40 4.4 96 96 SSW 6 9 30.06 1018 10 16 0.00 0.00
9:12 pm 21:12 Mostly Cloudy 41 5 39 4 93 93 SSW 7 11 30.06 1018 10 16 0.00 0.00
9:37 pm 21:37 Cloudy 40 4.4 38 3.3 93 93 SW 8 13 30.12 1020 10 16 0.00 0.00
9:53 pm 21:53 Cloudy 41 5 39 3.9 93 93 WSW 8 13 30.10 1019 10 16 0.00 0.00
10:14 pm 22:14 Partly Cloudy 39 4 37 3 93 93 SSW 8 13 30.12 1020 7 11 0.00 0.00
10:53 pm 22:53 Clear 35 1.7 34 1.1 96 96 SSW 8 13 30.13 1020 7 11 0.00 0.00
11:53 pm 23:53 Clear 37 2.8 36 2.2 96 96 SSW 9 15 30.12 1020 10 16 0.00 0.00

Powered by AerisWeather